Regional Weather Roundup
Issued by NWS Green Bay, WI

Home | Current Version | Previous Version | Graphics & Text | Print | Product List | Glossary Off
Versions: 1 2 3 4 5 6 7 8 9 10 11 12 13 14 15 16 17 18 19 20 21 22 23 24 25 26 27 28 29 30 31 32 33 34 35 36 37 38 39 40 41 42 43 44 45 46 47 48 49 50

000
ASUS43 KGRB 190459
RWRGRB

NORTH-CENTRAL AND NORTHEAST WISCONSIN REGIONAL WEATHER ROUNDUP
NATIONAL WEATHER SERVICE GREEN BAY WI
1200 AM CDT SAT APR 19 2014

WIZ005-009-010>012-018-019-190600-
NORTH CENTRAL WISCONSIN

CITY           SKY/WX    TMP DP  RH WIND       PRES   REMARKS
IRONWOOD       CLOUDY    36  23  60 SE7       30.32R
MANITOWISH WTR NOT AVBL
ARBOR VITAE    NOT AVBL
EAGLE RIVER    NOT AVBL
LAND O LAKES   NOT AVBL
RHINELANDER    PTCLDY    32  22  66 E10       30.35F
PHILLIPS       NOT AVBL
ANTIGO         NOT AVBL
TOMAHAWK       NOT AVBL
MERRILL        NOT AVBL
$$

WIZ013-073-190600-
NORTHEAST WISCONSIN

CITY           SKY/WX    TMP DP  RH WIND       PRES   REMARKS
IRON MOUNTAIN  CLEAR     30  23  75 E5        30.38F
MARINETTE      CLEAR     28  23  80 CALM      30.41S
$$

WIZ017-030-035>037-045-190600-
CENTRAL WISCONSIN

CITY           SKY/WX    TMP DP  RH WIND       PRES   REMARKS
MEDFORD        NOT AVBL
WAUSAU         PTCLDY    36  27  69 E12       30.33F
MOSINEE        NOT AVBL
MARSHFIELD     CLEAR     39  30  70 E10       30.32R
WISC RAPIDS    CLEAR     38  29  70 E12G20    30.35S
STEVENS POINT  NOT AVBL
WAUPACA        NOT AVBL
SHAWANO        NOT AVBL
CLINTONVILLE   NOT AVBL
$$

WIZ038-039-048-051-190600-
FOX VALLEY

CITY           SKY/WX    TMP DP  RH WIND       PRES   REMARKS
NWS GREEN BAY  CLEAR     33  26  75 E8        30.40F
APPLETON       NOT AVBL
OSHKOSH        CLEAR     35  26  69 E10       30.38R
FOND DU LAC    CLEAR     35  24  64 E13G18    30.38S
$$

WIZ022-050-052-190600-
EAST CENTRAL WISCONSIN

CITY           SKY/WX    TMP DP  RH WIND       PRES   REMARKS
STURGEON BAY   CLEAR     32  25  74 E3        30.41F
MANITOWOC      NOT AVBL
SHEBOYGAN      CLEAR     32  26  78 NE8       30.40S
$$

LMZ563-521-522-541>543-190600-
LAKESHORE

STATION/POSITION TIME  TEMP    WIND        PRES    VSBY  WAVE
                       AIR SEA DIR/SP/G                  HT/PER
                 (UTC) (F)     (DEG/KT/KT) (MB)    (MI)  (FT/S)
SHEBOYGAN LKSHOR 0400   37      30/  9/ 10 1030.4R
KEWAUNEE LKSHORE 0400   34      70/  6/  9 1030.1F
NORTHPORT PIER   0400   33      40/  2/  5 1030.5S
SISTER BAY LKSHO 0400   30        CALM       N/A
MENOMINEE LKSHOR 0400   27      50/ 10/ 11 1030.0F
$$



USA.gov is the U.S. government's official web portal to all federal, state and local government web resources and services.